Overview Statistics Trail Chart Weather Telemetry Raw packets
 

This is the latest recevied weather packets stored in our database for station/object OE6ATD-13. If no packets are shown the sender has not sent any weather packets the latest 10 day(s).

<< 2 3 4 5 6 7 8 >>
Time Temp. Humidity Pressure Rain* Wind** Luminosity Snow
1788648021 15.56° C 99% 1023.3 hPa 0 mm - 0 W/m² -
1788647417 15.56° C 99% 1023.2 hPa 0 mm - 0 W/m² -
1788646828 15.56° C 99% 1023.2 hPa 0 mm - 0 W/m² -
1788646222 15° C 99% 1023.1 hPa 0 mm - 0 W/m² -
1788645618 15° C 99% 1023 hPa 0 mm - 0 W/m² -
1788645029 15.56° C 99% 1023 hPa 0 mm - 0 W/m² -
1788644428 15.56° C 99% 1022.9 hPa 0 mm - 0 W/m² -
1788643824 15.56° C 99% 1022.9 hPa 0 mm - 0 W/m² -
1788643220 15.56° C 99% 1022.9 hPa 0 mm - 0 W/m² -
1788642616 16.11° C 99% 1022.8 hPa 0 mm - 0 W/m² -
1788642026 16.11° C 99% 1022.7 hPa 0 mm - 0 W/m² -
1788641422 16.11° C 99% 1022.8 hPa 0 mm - 0 W/m² -
1788640834 16.11° C 99% 1022.6 hPa 0 mm - 0 W/m² -
1788640230 16.11° C 99% 1022.5 hPa 0 mm - 0 W/m² -
1788639626 16.11° C 99% 1022.4 hPa 0 mm - 0 W/m² -
1788639022 16.11° C 99% 1022.5 hPa 0 mm - 0 W/m² -
1788638418 16.11° C 98% 1022.3 hPa 0 mm - 0 W/m² -
1788637828 16.67° C 98% 1022.2 hPa 0 mm - 0 W/m² -
1788637224 16.67° C 98% 1022.1 hPa 0 mm - 0 W/m² -
1788636620 16.67° C 97% 1021.9 hPa 0 mm - 0 W/m² -
1788636016 16.67° C 97% 1021.7 hPa 0 mm - 0 W/m² -
1788635427 16.67° C 96% 1021.7 hPa 0 mm - 0 W/m² -
1788634823 17.22° C 96% 1021.7 hPa 0 mm - 0 W/m² -
1788634219 17.22° C 93% 1021.4 hPa 0 mm - 0 W/m² -
1788633629 17.22° C 92% 1021.3 hPa 0 mm - 0 W/m² -

* Rain latest hour (hover to see other rain measurements)
** Current wind speed in m/s (hover to see current wind gust speed)